DW6471 Weather Reports


time (UTC)temp
F
wind
direction
speed
knots
gust
knots
rain 1hr
in
rain 24hr
in
rain mn
in
humidity
%
barometer
mb
20260504041342 56 210 0.0 0.0 0.00 0.00 0.00 86 1019.1
20260504040841 56 210 0.0 0.0 0.00 0.00 0.00 86 1019.1
20260504040342 55 210 0.0 0.0 0.00 0.00 0.00 86 1019.0
20260504040113 56 210 0.0 0.0 0.00 0.00 0.00 85 1019.0
20260504035342 56 210 0.0 0.0 0.00 0.00 0.00 84 1019.0
20260504034845 57 210 0.0 0.0 0.00 0.00 0.00 83 1018.9
20260504034841 56 210 0.0 0.0 0.00 0.00 0.00 83 1018.9
20260504033842 57 210 0.0 0.0 0.00 0.00 0.00 83 1018.8
20260504033342 57 210 0.0 0.0 0.00 0.00 0.00 82 1018.8
20260504032841 58 210 0.0 0.0 0.00 0.00 0.00 82 1018.9
20260504032342 58 210 0.0 0.0 0.00 0.00 0.00 82 1019.0
20260504031841 58 210 0.0 0.0 0.00 0.00 0.00 82 1018.9
20260504031341 58 210 0.0 0.0 0.00 0.00 0.00 81 1018.9
20260504030842 58 210 0.0 0.0 0.00 0.00 0.00 81 1018.9
20260504030342 58 210 0.0 0.0 0.00 0.00 0.00 79 1019.0
20260504025841 59 210 0.0 0.0 0.00 0.00 0.00 79 1018.9
20260504025342 59 210 0.0 0.0 0.00 0.00 0.00 79 1019.0
20260504024841 59 210 0.0 0.0 0.00 0.00 0.00 79 1018.9
20260504024612 59 210 0.0 0.0 0.00 0.00 0.00 79 1018.9
20260504023841 59 210 0.0 0.0 0.00 0.00 0.00 78 1018.9
20260504023341 59 210 0.0 0.0 0.00 0.00 0.00 78 1018.9
20260504022848 60 210 0.0 0.0 0.00 0.00 0.00 74 1018.7
20260504022842 60 210 0.0 0.0 0.00 0.00 0.00 76 1018.9
20260504022342 60 210 0.0 0.0 0.00 0.00 0.00 75 1018.8
20260504021341 61 210 0.0 0.0 0.00 0.00 0.00 73 1018.7
20260504020841 61 210 0.0 0.9 0.00 0.00 0.00 73 1018.7
20260504020342 61 210 0.0 0.9 0.00 0.00 0.00 73 1018.6
20260504015841 61 210 0.0 0.0 0.00 0.00 0.00 72 1018.6
20260504015342 62 210 0.0 0.0 0.00 0.00 0.00 71 1018.6
20260504014842 62 210 0.0 0.0 0.00 0.00 0.00 69 1018.5
20260504014341 63 210 0.0 0.0 0.00 0.00 0.00 68 1018.4
20260504014113 64 210 0.0 0.0 0.00 0.00 0.00 66 1018.4
20260504013341 65 210 0.0 0.9 0.00 0.00 0.00 64 1018.3
20260504012842 65 210 0.0 0.9 0.00 0.00 0.00 62 1018.3
20260504012342 66 213 0.0 1.7 0.00 0.00 0.00 62 1018.2
20260504011841 66 214 0.0 1.7 0.00 0.00 0.00 60 1018.1
20260504011613 67 244 0.0 1.7 0.00 0.00 0.00 59 1018.0
20260504010842 67 244 0.0 1.7 0.00 0.00 0.00 58 1018.0
20260504010341 67 210 0.0 3.5 0.00 0.00 0.00 57 1018.1
20260504005842 67 218 0.9 3.5 0.00 0.00 0.00 56 1018.0
20260504005341 67 226 0.0 3.5 0.00 0.00 0.00 55 1018.0
20260504004841 68 215 0.0 0.9 0.00 0.00 0.00 55 1018.0
20260504004342 68 217 0.0 1.7 0.00 0.00 0.00 53 1017.9
20260504003841 69 266 0.0 1.7 0.00 0.00 0.00 53 1017.8
20260504003342 69 215 0.0 2.6 0.00 0.00 0.00 51 1017.7
20260504002841 69 228 0.9 3.5 0.00 0.00 0.00 50 1017.6
20260504002342 70 226 0.9 3.5 0.00 0.00 0.00 50 1017.6
20260504001841 70 221 0.0 1.7 0.00 0.00 0.00 49 1017.6
20260504001339 71 264 0.0 3.5 0.00 0.00 0.00 48 1017.6
20260504001111 71 236 0.0 3.5 0.00 0.00 0.00 46 1017.5
20260504000337 71 120 0.0 0.9 0.00 0.00 0.00 46 1017.5
20260503235838 72 48 0.0 0.9 0.00 0.00 0.00 42 1017.4
20260503235336 73 48 0.0 1.7 0.00 0.00 0.00 39 1017.4
20260503234833 74 48 0.9 2.6 0.00 0.00 0.00 37 1017.4
20260503234334 74 48 1.7 3.5 0.00 0.00 0.00 35 1017.4
20260503233834 75 34 0.9 3.5 0.00 0.00 0.00 36 1017.5
20260503233329 75 65 0.9 3.5 0.00 0.00 0.00 35 1017.5
20260503233100 76 94 0.9 3.5 0.00 0.00 0.00 35 1017.6
20260503232329 76 47 0.9 3.5 0.00 0.00 0.00 36 1017.7
20260503231826 76 74 0.9 2.6 0.00 0.00 0.00 35 1017.7
20260503231326 76 306 1.7 4.3 0.00 0.00 0.00 33 1017.6
20260503230825 76 79 1.7 4.3 0.00 0.00 0.00 33 1017.5
20260503230329 76 58 1.7 6.1 0.00 0.00 0.00 34 1017.6
20260503230325 76 53 2.6 6.1 0.00 0.00 0.00 32 1017.5
20260503225325 77 1 0.9 2.6 0.00 0.00 0.00 32 1017.6
20260503224826 77 326 1.7 3.5 0.00 0.00 0.00 32 1017.5
20260503224325 77 24 1.7 6.1 0.00 0.00 0.00 32 1017.6
20260503223822 77 326 1.7 6.1 0.00 0.00 0.00 32 1017.6
20260503223320 77 109 1.7 4.3 0.00 0.00 0.00 32 1017.5
20260503222819 77 76 1.7 4.3 0.00 0.00 0.00 31 1017.6
20260503222320 78 347 1.7 7.0 0.00 0.00 0.00 31 1017.5
20260503222049 77 262 1.7 7.0 0.00 0.00 0.00 34 1017.5
20260503221317 77 326 0.9 5.2 0.00 0.00 0.00 33 1017.6
20260503220816 77 96 1.7 7.0 0.00 0.00 0.00 32 1017.6
20260503220315 77 346 2.6 7.0 0.00 0.00 0.00 32 1017.6
20260503220045 77 86 1.7 4.3 0.00 0.00 0.00 31 1017.6
20260503215312 78 7 1.7 5.2 0.00 0.00 0.00 30 1017.7
20260503214811 78 249 1.7 5.2 0.00 0.00 0.00 32 1017.7
20260503214309 78 52 0.9 5.2 0.00 0.00 0.00 32 1017.8
20260503213809 78 35 0.9 5.2 0.00 0.00 0.00 30 1017.8
20260503213308 78 59 0.9 7.8 0.00 0.00 0.00 31 1017.7
20260503212805 78 217 1.7 7.8 0.00 0.00 0.00 30 1017.8
20260503212305 78 217 1.7 6.1 0.00 0.00 0.00 30 1017.9
20260503211804 77 354 2.6 6.1 0.00 0.00 0.00 30 1018.0
20260503211303 78 62 2.6 5.2 0.00 0.00 0.00 32 1018.0
20260503210808 78 52 2.6 7.8 0.00 0.00 0.00 30 1018.0
20260503210804 78 10 2.6 7.8 0.00 0.00 0.00 32 1018.1
20260503210033 78 300 1.7 4.3 0.00 0.00 0.00 31 1018.0
20260503205532 77 240 2.6 6.1 0.00 0.00 0.00 33 1018.2
20260503204802 78 81 2.6 6.1 0.00 0.00 0.00 31 1018.4
20260503204301 78 68 1.7 7.0 0.00 0.00 0.00 32 1018.5
20260503203759 78 48 1.7 7.0 0.00 0.00 0.00 29 1018.5
20260503203300 78 335 1.7 5.2 0.00 0.00 0.00 30 1018.6
20260503202759 78 218 1.7 5.2 0.00 0.00 0.00 30 1018.7
20260503202259 77 328 1.7 6.1 0.00 0.00 0.00 30 1018.8
20260503201800 78 39 1.7 6.1 0.00 0.00 0.00 29 1018.9
20260503201257 78 23 1.7 6.1 0.00 0.00 0.00 29 1019.0
20260503201025 78 146 1.7 7.8 0.00 0.00 0.00 31 1019.1
20260503200256 78 321 2.6 7.8 0.00 0.00 0.00 30 1019.1
20260503195755 78 326 2.6 6.1 0.00 0.00 0.00 30 1019.1
20260503195253 78 296 1.7 5.2 0.00 0.00 0.00 31 1019.3
20260503194754 78 303 1.7 5.2 0.00 0.00 0.00 30 1019.5
20260503194253 78 72 0.9 5.2 0.00 0.00 0.00 29 1019.4
20260503193754 78 117 0.9 4.3 0.00 0.00 0.00 30 1019.4
20260503193253 77 263 2.6 7.0 0.00 0.00 0.00 32 1019.6
20260503192753 76 318 2.6 7.0 0.00 0.00 0.00 30 1019.7
20260503192254 76 84 3.5 9.6 0.00 0.00 0.00 30 1019.8
20260503191753 77 35 2.6 9.6 0.00 0.00 0.00 28 1019.8
20260503191253 77 88 1.7 6.1 0.00 0.00 0.00 28 1019.8
20260503190754 77 337 0.9 5.2 0.00 0.00 0.00 30 1019.9
20260503190253 76 150 1.7 6.1 0.00 0.00 0.00 30 1020.1
20260503185753 76 129 2.6 7.0 0.00 0.00 0.00 26 1020.1
20260503185525 77 319 1.7 7.0 0.00 0.00 0.00 28 1020.3
20260503185024 77 60 2.6 7.8 0.00 0.00 0.00 27 1020.3
20260503184253 77 43 2.6 7.8 0.00 0.00 0.00 28 1020.4
20260503183750 77 21 1.7 7.0 0.00 0.00 0.00 35 1020.5
20260503183250 77 324 1.7 7.0 0.00 0.00 0.00 29 1020.5
20260503182749 76 159 1.7 7.0 0.00 0.00 0.00 30 1020.5
20260503182248 76 331 1.7 6.1 0.00 0.00 0.00 31 1020.6
20260503181747 76 315 2.6 7.8 0.00 0.00 0.00 32 1020.7
20260503181518 76 353 2.6 7.8 0.00 0.00 0.00 31 1020.8
20260503180747 76 283 1.7 7.0 0.00 0.00 0.00 33 1020.8
20260503180247 76 173 2.6 7.0 0.00 0.00 0.00 33 1020.8
20260503180017 76 153 2.6 7.0 0.00 0.00 0.00 32 1020.8
20260503175245 75 263 2.6 7.0 0.00 0.00 0.00 32 1020.9
20260503174746 75 323 2.6 7.0 0.00 0.00 0.00 33 1020.9
20260503174245 75 310 1.7 6.1 0.00 0.00 0.00 31 1020.9
20260503173745 75 338 2.6 7.8 0.00 0.00 0.00 34 1021.0
20260503173244 75 272 2.6 7.8 0.00 0.00 0.00 34 1021.0
20260503173014 75 302 2.6 7.8 0.00 0.00 0.00 31 1020.9
20260503172244 74 32 2.6 7.0 0.00 0.00 0.00 33 1021.0
20260503172014 75 288 1.7 8.7 0.00 0.00 0.00 36 1021.0
20260503171244 74 74 2.6 8.7 0.00 0.00 0.00 32 1021.1
20260503170743 74 341 2.6 7.0 0.00 0.00 0.00 34 1021.2
20260503170244 74 352 2.6 9.6 0.00 0.00 0.00 33 1021.3
20260503150737 71 335 3.5 10.4 0.00 0.00 0.00 38 1022.1
20260503150237 71 66 2.6 10.4 0.00 0.00 0.00 36 1022.1
20260503140229 67 78 1.7 4.3 0.00 0.00 0.00 49 1021.7
20260503131225 63 330 0.9 4.3 0.00 0.00 0.00 59 1021.1
20260503130725 62 84 0.9 3.5 0.00 0.00 0.00 59 1021.2
20260503130225 62 51 0.9 3.5 0.00 0.01 0.00 61 1021.1
20260503120221 50 15 0.0 0.9 0.00 0.01 0.00 93 1020.9
20260503110719 44 16 0.0 0.9 0.00 0.01 0.00 94 1020.3
20260503110219 44 16 0.0 0.9 0.00 0.02 0.00 94 1020.3
20260503100217 45 46 0.0 0.0 0.00 0.03 0.00 93 1020.0
20260503090213 46 46 0.0 0.9 0.00 0.15 0.00 93 1019.5
20260503081211 45 46 0.0 0.0 0.00 0.26 0.00 93 1019.3
20260503080711 45 46 0.0 0.0 0.00 0.28 0.00 93 1019.1
20260503080211 45 46 0.0 0.0 0.00 0.31 0.00 92 1019.2
20260503072710 46 46 0.0 0.0 0.00 0.47 0.00 92 1018.9
20260503072209 46 46 0.0 0.0 0.00 0.49 0.00 92 1018.9
20260503071709 47 46 0.0 0.0 0.00 0.53 0.00 92 1018.9
20260503071209 47 46 0.0 0.0 0.00 0.55 0.00 92 1019.0
20260503070709 47 46 0.0 0.0 0.00 0.56 0.00 92 1019.0
20260503070209 47 46 0.0 0.0 0.00 0.58 0.00 92 1019.0
20260503060207 48 46 0.0 0.0 0.00 0.90 0.00 89 1018.8
20260503054707 48 46 0.0 0.0 0.00 0.99 0.00 88 1018.7
20260503054205 48 46 0.0 0.0 0.00 1.00 0.00 88 1018.6
20260503053705 49 46 0.0 0.0 0.00 1.01 0.00 88 1018.6
20260503053437 49 46 0.0 0.0 0.00 1.01 0.00 88 1018.6
20260503052705 49 46 0.0 0.0 0.00 1.02 0.00 87 1018.6
20260503052436 49 46 0.0 0.0 0.00 1.03 0.00 86 1018.6
20260503051705 49 46 0.0 0.0 0.00 1.05 0.00 86 1018.6
20260503051205 49 46 0.0 0.0 0.00 1.06 0.00 86 1018.5
20260503050705 49 46 0.0 0.0 0.00 1.07 0.00 86 1018.5
20260503050435 49 46 0.0 0.0 0.00 1.09 0.00 86 1018.5
20260503045936 50 46 0.0 0.0 0.00 1.09 1.09 84 1018.5
20260503045206 50 46 0.0 0.0 0.00 1.09 1.09 84 1018.4
20260503044701 50 46 0.0 0.0 0.00 1.09 1.09 83 1018.4
20260503044201 51 46 0.0 0.0 0.00 1.09 1.09 83 1018.4
20260503043700 51 46 0.0 0.0 0.00 1.09 1.09 82 1018.4
20260503043157 51 46 0.0 0.0 0.00 1.09 1.09 82 1018.4
20260503042658 51 46 0.0 0.0 0.00 1.09 1.09 83 1018.4
20260503042157 50 46 0.0 0.0 0.00 1.09 1.09 84 1018.4